FW6411 Weather Reports


time (UTC)temp
F
wind
direction
speed
knots
gust
knots
rain 1hr
in
rain 24hr
in
rain mn
in
humidity
%
barometer
mb
20260508044011 49 196 0.0 0.9 0.00 0.73 0.00 96 1001.6
20260508043507 49 196 0.0 0.9 0.00 0.73 0.00 96 1001.6
20260508043103 49 196 0.0 0.9 0.00 0.73 0.00 96 1001.6
20260508042513 49 185 0.0 0.0 0.00 0.73 0.00 96 1001.7
20260508042004 49 185 0.0 0.0 0.00 0.73 0.00 96 1001.8
20260508041514 49 185 0.0 0.0 0.00 0.73 0.00 96 1001.7
20260508041004 49 185 0.0 0.0 0.00 0.73 0.00 96 1001.7
20260508040510 49 185 0.0 0.0 0.00 0.73 0.00 96 1001.7
20260508040005 49 185 0.0 0.0 0.00 0.73 0.00 96 1001.9
20260508035509 49 185 0.0 0.0 0.00 0.73 0.00 96 1002.0
20260508034511 49 185 0.0 0.0 0.00 0.73 0.00 95 1002.1
20260508033507 49 185 0.0 0.9 0.00 0.73 0.00 95 1002.1
20260508033006 49 185 0.0 0.9 0.00 0.73 0.00 95 1002.1
20260508032508 49 197 0.0 0.9 0.00 0.73 0.00 95 1002.1
20260508032004 49 206 0.0 2.6 0.00 0.73 0.00 95 1002.1
20260508031512 49 170 0.9 2.6 0.00 0.73 0.00 95 1002.3
20260508031005 49 213 0.9 2.6 0.00 0.73 0.00 95 1002.2
20260508030511 49 209 0.0 1.7 0.00 0.73 0.00 95 1002.2
20260508030005 49 161 0.0 1.7 0.00 0.73 0.00 95 1002.3
20260508025511 48 171 0.0 1.7 0.00 0.73 0.73 95 1002.4
20260508025002 49 192 0.0 3.5 0.00 0.73 0.73 95 1002.0
20260508024508 49 175 1.7 5.2 0.00 0.73 0.73 95 1002.1
20260508024003 49 200 2.6 5.2 0.00 0.73 0.73 95 1001.8
20260508023510 49 211 1.7 4.3 0.00 0.73 0.73 95 1001.9
20260508023004 49 195 1.7 4.3 0.00 0.73 0.73 95 1001.8
20260508022509 49 211 2.6 4.3 0.00 0.73 0.73 95 1001.9
20260508022005 49 230 1.7 3.5 0.00 0.73 0.73 95 1002.0
20260508021509 49 207 1.7 3.5 0.00 0.73 0.73 95 1001.8
20260508021005 49 218 1.7 3.5 0.00 0.73 0.73 95 1001.7
20260508020510 49 211 0.9 5.2 0.00 0.73 0.73 95 1002.0
20260508020005 49 220 2.6 5.2 0.00 0.73 0.73 95 1002.0
20260508015604 49 217 2.6 5.2 0.00 0.73 0.73 95 1002.0
20260508015004 49 191 0.9 5.2 0.00 0.73 0.73 95 1002.0
20260508014511 49 226 2.6 5.2 0.00 0.73 0.73 95 1002.1
20260508014007 49 170 2.6 5.2 0.00 0.73 0.73 95 1002.1
20260508013606 49 250 0.9 3.5 0.00 0.73 0.73 95 1002.0
20260508013006 48 163 1.7 3.5 0.00 0.73 0.73 95 1001.9
20260508012503 48 143 0.9 3.5 0.00 0.73 0.73 95 1001.8
20260508012007 48 167 0.9 3.5 0.00 0.73 0.73 95 1001.7
20260508011504 48 217 1.7 5.2 0.00 0.73 0.73 95 1002.0
20260508011007 48 147 0.9 5.2 0.00 0.73 0.73 95 1001.9
20260508010503 48 144 2.6 7.0 0.00 0.73 0.73 95 1002.0
20260508010019 48 152 1.7 7.0 0.00 0.73 0.73 94 1002.2
20260508005504 48 142 2.6 7.0 0.00 0.73 0.73 95 1002.5
20260508005004 48 192 3.5 7.0 0.00 0.73 0.73 94 1002.4
20260508004518 49 149 1.7 5.2 0.00 0.73 0.73 94 1002.3
20260508004005 49 165 1.7 5.2 0.00 0.73 0.73 94 1002.4
20260508003509 48 152 2.6 5.2 0.00 0.73 0.73 94 1002.3
20260508003007 48 206 1.7 3.5 0.00 0.73 0.73 94 1002.1
20260508002604 49 172 1.7 3.5 0.00 0.73 0.73 94 1002.1
20260508002007 49 187 0.0 4.3 0.00 0.73 0.73 94 1002.2
20260508001505 49 174 1.7 5.2 0.00 0.73 0.73 94 1002.3
20260508001008 49 201 1.7 5.2 0.00 0.73 0.73 94 1002.2
20260508000503 49 215 2.6 5.2 0.00 0.73 0.73 94 1002.5
20260508000008 49 163 2.6 5.2 0.00 0.73 0.73 94 1002.8
20260507235504 49 169 2.6 5.2 0.00 0.73 0.73 94 1002.7
20260507235113 49 149 1.7 5.2 0.00 0.73 0.73 94 1002.6
20260507234613 49 199 2.6 7.0 0.01 0.73 0.73 94 1002.3
20260507234006 49 175 2.6 7.0 0.01 0.73 0.73 94 1002.5
20260507233603 49 170 1.7 7.8 0.01 0.73 0.73 94 1002.6
20260507233007 49 153 4.3 7.8 0.01 0.73 0.73 94 1002.7
20260507232502 49 161 3.5 7.8 0.01 0.73 0.73 94 1002.6
20260507232008 49 144 3.5 7.8 0.01 0.73 0.73 94 1002.8
20260507231504 49 213 2.6 7.0 0.01 0.73 0.73 94 1002.8
20260507231008 49 168 3.5 8.7 0.01 0.73 0.73 94 1003.0
20260507230504 49 151 5.2 8.7 0.01 0.73 0.73 94 1003.0
20260507230008 49 192 3.5 5.2 0.01 0.73 0.73 94 1002.9
20260507225505 49 180 1.7 5.2 0.01 0.73 0.73 94 1002.6
20260507225013 49 157 1.7 7.0 0.01 0.73 0.73 94 1002.6
20260507224514 49 157 2.6 6.1 0.00 0.72 0.72 93 1003.0
20260507224005 49 165 2.6 6.1 0.00 0.72 0.72 93 1003.0
20260507223513 49 148 2.6 6.1 0.00 0.72 0.72 93 1003.0
20260507223007 49 173 2.6 7.8 0.00 0.72 0.72 93 1003.0
20260507222604 49 174 3.5 9.6 0.00 0.72 0.72 93 1002.7
20260507222009 49 154 4.3 12.2 0.00 0.72 0.72 93 1002.9
20260507221505 49 167 6.1 12.2 0.00 0.72 0.72 93 1003.0
20260507221009 50 189 6.1 10.4 0.00 0.72 0.72 92 1002.9
20260507220505 50 164 5.2 13.9 0.00 0.72 0.72 92 1003.1
20260507220010 50 155 9.6 13.9 0.00 0.72 0.72 92 1002.9
20260507215505 50 204 7.0 13.9 0.01 0.72 0.72 93 1002.8
20260507215010 50 146 7.0 13.9 0.01 0.72 0.72 93 1002.9
20260507214006 49 139 8.7 14.8 0.05 0.72 0.72 92 1002.7
20260507213504 49 118 7.0 20.0 0.07 0.72 0.72 92 1002.5
20260507213008 49 115 10.4 20.0 0.09 0.72 0.72 92 1002.4
20260507212503 49 126 9.6 23.5 0.12 0.72 0.72 92 1001.9
20260507212008 49 114 13.0 23.5 0.15 0.72 0.72 92 1001.6
20260507211503 49 183 9.6 18.2 0.17 0.72 0.72 92 1002.1
20260507211007 49 156 6.1 13.0 0.20 0.72 0.72 92 1002.4
20260507210005 49 119 7.8 15.6 0.26 0.72 0.72 92 1003.1
20260507205511 50 141 7.0 15.6 0.28 0.72 0.72 92 1003.2
20260507205106 50 138 8.7 16.5 0.31 0.72 0.72 92 1003.4
20260507204503 50 168 9.6 16.5 0.34 0.69 0.69 91 1003.5
20260507204007 50 133 7.0 15.6 0.34 0.67 0.67 92 1003.9
20260507203604 50 139 8.7 15.6 0.35 0.65 0.65 92 1003.7
20260507203007 50 145 7.0 13.9 0.38 0.63 0.63 92 1003.9
20260507202502 51 194 7.8 14.8 0.37 0.60 0.60 92 1004.3
20260507202007 51 175 6.1 14.8 0.35 0.56 0.56 92 1004.6
20260507201603 51 199 7.0 14.8 0.35 0.55 0.55 92 1004.6
20260507201007 51 206 4.3 12.2 0.32 0.52 0.52 92 1004.9
20260507200603 51 239 7.0 13.0 0.32 0.50 0.50 92 1005.0
20260507200007 51 159 7.8 13.0 0.28 0.46 0.46 92 1005.0
20260507195505 52 166 5.2 14.8 0.27 0.42 0.42 92 1004.5
20260507195111 51 143 6.1 16.5 0.26 0.39 0.39 92 1004.6
20260507194503 52 138 9.6 16.5 0.24 0.35 0.35 92 1004.7
20260507194008 52 150 7.0 17.4 0.22 0.32 0.32 92 1004.6
20260507193504 52 171 7.0 19.1 0.20 0.28 0.28 92 1004.6
20260507193009 52 126 10.4 19.1 0.17 0.25 0.25 92 1004.7
20260507192503 52 183 10.4 20.0 0.13 0.22 0.22 91 1004.8
20260507192009 52 112 12.2 20.0 0.13 0.21 0.21 91 1004.8
20260507191504 52 196 8.7 16.5 0.13 0.20 0.20 91 1005.1
20260507191006 52 180 7.0 15.6 0.13 0.20 0.20 92 1005.1
20260507190010 52 163 8.7 14.8 0.10 0.17 0.17 91 1005.4
20260507185602 52 147 7.0 14.8 0.09 0.15 0.15 92 1005.6
20260507185007 52 170 6.1 13.9 0.06 0.13 0.13 91 1005.8
20260507184603 52 171 7.0 13.9 0.06 0.12 0.12 92 1005.8
20260507184007 52 163 4.3 13.0 0.04 0.10 0.10 91 1005.8
20260507183502 52 149 7.0 16.5 0.02 0.09 0.09 91 1005.8
20260507183019 52 170 10.4 16.5 0.02 0.09 0.09 91 1005.7
20260507182504 52 165 9.6 18.2 0.02 0.09 0.09 91 1005.5
20260507182008 52 159 13.0 19.1 0.02 0.08 0.08 90 1005.5
20260507181511 52 132 8.7 20.0 0.01 0.07 0.07 90 1005.4
20260507181005 52 142 13.0 20.0 0.01 0.07 0.07 90 1005.2
20260507180509 53 133 12.2 20.0 0.00 0.06 0.06 90 1005.2
20260507180004 53 216 13.0 20.9 0.00 0.06 0.06 89 1005.2
20260507175511 53 121 10.4 20.9 0.00 0.06 0.06 89 1005.4
20260507175003 53 149 13.0 23.5 0.00 0.06 0.06 88 1005.4
20260507174511 54 123 13.9 23.5 0.00 0.06 0.06 88 1005.5
20260507174103 54 136 13.0 21.7 0.00 0.06 0.06 87 1005.6
20260507173505 54 149 12.2 21.7 0.00 0.06 0.06 86 1005.7
20260507172507 55 143 9.6 18.2 0.00 0.06 0.06 86 1006.1
20260507172103 55 159 12.2 18.2 0.00 0.06 0.06 86 1005.9
20260507171506 55 160 9.6 19.1 0.00 0.06 0.06 86 1005.8
20260507171012 55 148 10.4 21.7 0.00 0.06 0.06 87 1005.9
20260507170506 54 157 11.3 21.7 0.00 0.06 0.06 87 1006.1
20260507170009 54 164 11.3 20.0 0.00 0.06 0.06 87 1006.2
20260507165504 54 141 11.3 20.9 0.00 0.06 0.06 87 1006.5
20260507165008 54 132 11.3 21.7 0.00 0.06 0.06 87 1006.8
20260507164504 54 147 10.4 21.7 0.00 0.06 0.06 87 1006.7
20260507164009 55 156 11.3 20.0 0.00 0.06 0.06 86 1006.9
20260507163505 54 165 10.4 21.7 0.00 0.06 0.06 87 1007.0
20260507163011 54 128 11.3 23.5 0.00 0.06 0.06 87 1007.0
20260507162506 55 171 13.0 23.5 0.00 0.06 0.06 86 1007.4
20260507162008 55 149 9.6 20.9 0.00 0.06 0.06 86 1007.6
20260507161503 55 152 8.7 20.9 0.00 0.06 0.06 87 1007.5
20260507161006 55 152 10.4 19.1 0.00 0.06 0.06 86 1007.8
20260507160018 55 205 9.6 19.1 0.00 0.06 0.06 87 1008.1
20260507155008 55 148 10.4 20.0 0.00 0.06 0.06 89 1008.2
20260507154505 55 140 12.2 20.0 0.00 0.06 0.06 88 1008.2
20260507154010 55 169 11.3 24.3 0.00 0.06 0.06 88 1008.3
20260507153606 55 166 13.0 24.3 0.00 0.06 0.06 88 1008.3
20260507153007 55 187 8.7 20.0 0.00 0.06 0.06 88 1008.5
20260507152503 55 142 8.7 22.6 0.00 0.06 0.06 88 1008.9
20260507152008 55 170 11.3 22.6 0.00 0.06 0.06 88 1008.8
20260507151505 55 136 10.4 15.6 0.00 0.06 0.06 88 1009.3
20260507151013 55 164 8.7 20.0 0.00 0.06 0.06 89 1009.3
20260507150507 55 102 7.8 20.0 0.00 0.06 0.06 89 1009.1
20260507150011 55 154 9.6 15.6 0.00 0.06 0.06 89 1009.2
20260507145604 55 160 7.8 15.6 0.00 0.06 0.06 89 1009.2
20260507145008 55 199 6.1 12.2 0.00 0.06 0.06 89 1009.5
20260507144504 55 172 7.8 17.4 0.00 0.06 0.06 89 1009.4
20260507144009 54 149 10.4 17.4 0.00 0.06 0.06 89 1009.6
20260507143503 54 144 8.7 16.5 0.00 0.06 0.06 90 1009.9
20260507143012 54 197 10.4 16.5 0.00 0.06 0.06 90 1010.0
20260507142605 54 120 7.0 13.9 0.00 0.06 0.06 90 1010.0
20260507142010 54 148 9.6 17.4 0.00 0.06 0.06 89 1010.4
20260507141515 54 157 9.6 17.4 0.00 0.06 0.06 88 1010.6
20260507141010 54 177 9.6 16.5 0.00 0.06 0.06 88 1010.6
20260507140505 54 173 8.7 16.5 0.00 0.06 0.06 88 1010.6
20260507140109 54 206 9.6 17.4 0.00 0.06 0.06 88 1010.4
20260507135506 54 142 10.4 17.4 0.00 0.06 0.06 87 1010.5
20260507135009 54 140 9.6 17.4 0.00 0.06 0.06 87 1010.3
20260507134505 55 201 8.7 19.1 0.00 0.06 0.06 87 1010.4
20260507134010 55 173 8.7 20.0 0.00 0.06 0.06 87 1010.4
20260507133006 55 162 9.6 19.1 0.00 0.06 0.06 87 1010.4
20260507132006 54 145 13.0 23.5 0.00 0.06 0.06 88 1009.9
20260507131604 54 149 9.6 21.7 0.00 0.06 0.06 88 1010.2
20260507131008 54 152 9.6 21.7 0.00 0.06 0.06 88 1010.2
20260507130502 54 138 9.6 24.3 0.00 0.06 0.06 89 1010.5
20260507130020 53 125 11.3 24.3 0.00 0.06 0.06 89 1010.5
20260507125510 53 121 9.6 21.7 0.00 0.06 0.06 90 1010.1
20260507125005 53 165 7.8 20.0 0.00 0.06 0.06 91 1010.0
20260507124511 52 118 8.7 20.0 0.00 0.06 0.06 91 1009.9
20260507124005 52 157 8.7 20.0 0.00 0.06 0.06 91 1010.2
20260507123504 52 225 9.6 17.4 0.00 0.06 0.06 91 1010.6
20260507123008 52 161 7.0 18.2 0.00 0.06 0.06 91 1010.6
20260507122504 52 131 8.7 18.2 0.00 0.06 0.06 91 1010.8
20260507122008 52 138 7.0 21.7 0.00 0.06 0.06 91 1011.2
20260507121509 53 186 9.6 21.7 0.00 0.06 0.06 91 1011.4
20260507121006 53 156 9.6 19.1 0.00 0.06 0.06 91 1011.6
20260507120513 53 157 9.6 20.0 0.00 0.06 0.06 90 1011.6
20260507120006 53 128 8.7 20.0 0.00 0.06 0.06 91 1011.9
20260507115506 53 190 7.8 17.4 0.00 0.06 0.06 91 1012.2
20260507115008 53 143 7.0 15.6 0.00 0.06 0.06 91 1012.3
20260507114614 53 173 7.8 20.0 0.00 0.06 0.06 91 1012.3
20260507114005 53 175 8.7 20.0 0.00 0.06 0.06 91 1012.2
20260507113508 53 97 10.4 17.4 0.00 0.06 0.06 91 1012.0
20260507112507 53 168 10.4 19.1 0.00 0.06 0.06 91 1012.3
20260507112105 53 182 10.4 18.2 0.00 0.06 0.06 92 1012.3
20260507111507 52 143 10.4 18.2 0.00 0.06 0.06 92 1012.0
20260507111103 52 131 9.6 19.1 0.00 0.06 0.06 92 1011.6
20260507110505 52 143 8.7 19.1 0.00 0.06 0.06 92 1011.8
20260507110024 52 164 6.1 17.4 0.00 0.06 0.06 92 1012.1
20260507105505 52 137 6.1 15.6 0.00 0.06 0.06 92 1012.2
20260507105008 52 165 5.2 13.9 0.00 0.06 0.06 92 1012.0
20260507104606 52 152 7.8 16.5 0.00 0.06 0.06 92 1012.3
20260507104006 51 145 7.8 16.5 0.00 0.06 0.06 92 1013.0
20260507103507 52 251 6.1 14.8 0.00 0.06 0.06 92 1013.2
20260507103009 52 157 7.0 14.8 0.00 0.06 0.06 92 1013.4
20260507102505 52 203 7.0 14.8 0.00 0.06 0.06 92 1013.0
20260507102008 51 155 7.0 13.0 0.00 0.06 0.06 93 1013.0
20260507101508 51 200 5.2 13.0 0.01 0.06 0.06 93 1012.8
20260507100505 51 193 4.3 8.7 0.01 0.06 0.06 93 1012.9
20260507100013 51 209 3.5 9.6 0.01 0.06 0.06 93 1013.3
20260507095605 51 182 2.6 9.6 0.01 0.06 0.06 93 1013.2
20260507095009 51 132 3.5 11.3 0.01 0.06 0.06 93 1013.1
20260507094605 51 220 4.3 11.3 0.02 0.06 0.06 93 1012.8
20260507094006 51 147 6.1 13.0 0.02 0.06 0.06 93 1013.1
20260507093513 51 210 7.0 18.2 0.02 0.06 0.06 93 1013.4
20260507093022 51 150 7.8 18.2 0.02 0.06 0.06 93 1012.9
20260507092506 51 135 7.0 13.9 0.02 0.06 0.06 93 1012.9
20260507092010 51 125 7.0 13.9 0.03 0.06 0.06 92 1012.9
20260507091008 51 139 5.2 12.2 0.03 0.06 0.06 92 1013.6
20260507090511 51 223 5.2 15.6 0.03 0.06 0.06 92 1013.5
20260507090007 52 154 7.0 15.6 0.04 0.06 0.06 92 1013.2
20260507085510 52 166 4.3 17.4 0.05 0.06 0.06 92 1013.3
20260507085006 52 186 6.1 17.4 0.04 0.05 0.05 92 1013.4
20260507084518 52 168 7.0 14.8 0.04 0.05 0.05 92 1013.4
20260507084007 52 137 6.1 14.8 0.05 0.05 0.05 92 1013.3
20260507083605 52 147 7.8 13.9 0.04 0.04 0.04 92 1013.4
20260507083009 52 135 7.0 15.6 0.04 0.04 0.04 92 1013.1
20260507082506 52 191 6.1 16.5 0.04 0.04 0.04 92 1013.1
20260507082007 52 195 7.0 16.5 0.02 0.02 0.02 92 1013.3
20260507081511 52 156 7.0 13.9 0.02 0.02 0.02 92 1013.3
20260507081009 52 145 7.0 13.9 0.02 0.02 0.02 92 1013.4
20260507080007 51 128 5.2 12.2 0.02 0.02 0.02 92 1013.9
20260507075603 51 124 4.3 12.2 0.02 0.02 0.02 92 1014.1
20260507075009 51 175 4.3 9.6 0.01 0.01 0.01 91 1014.1
20260507074615 51 141 4.3 11.3 0.01 0.01 0.01 91 1014.1
20260507074007 51 169 4.3 12.2 0.00 0.00 0.00 91 1014.2
20260507073503 51 156 6.1 12.2 0.00 0.00 0.00 91 1014.2
20260507073008 51 123 6.1 11.3 0.00 0.00 0.00 91 1014.3
20260507072009 52 145 3.5 9.6 0.00 0.00 0.00 91 1014.3
20260507071606 52 136 4.3 10.4 0.00 0.00 0.00 91 1014.2
20260507071008 52 202 6.1 10.4 0.00 0.00 0.00 92 1014.1
20260507070511 52 172 3.5 8.7 0.00 0.00 0.00 92 1014.3
20260507070009 52 136 0.9 8.7 0.00 0.00 0.00 92 1014.5
20260507065510 52 219 2.6 9.6 0.00 0.00 0.00 92 1014.8
20260507065004 52 138 5.2 9.6 0.00 0.00 0.00 92 1014.6
20260507064509 52 209 3.5 10.4 0.00 0.00 0.00 92 1014.7
20260507064105 52 145 4.3 10.4 0.00 0.00 0.00 92 1014.8
20260507063508 52 173 2.6 7.0 0.00 0.00 0.00 91 1014.9
20260507063018 52 186 2.6 7.0 0.00 0.00 0.00 91 1015.0
20260507062508 52 175 1.7 5.2 0.00 0.00 0.00 92 1015.0
20260507062003 52 236 1.7 7.0 0.00 0.00 0.00 91 1015.1
20260507061508 52 223 3.5 7.0 0.00 0.00 0.00 91 1015.2
20260507060507 52 268 4.3 7.8 0.00 0.00 0.00 91 1015.2
20260507055507 52 171 1.7 7.0 0.00 0.00 0.00 91 1015.2
20260507055104 52 199 4.3 7.8 0.00 0.00 0.00 91 1015.2
20260507054508 52 174 3.5 7.8 0.00 0.00 0.00 92 1015.3
20260507053508 52 143 0.9 7.0 0.00 0.00 0.00 92 1015.5
20260507053007 52 192 3.5 7.0 0.00 0.00 0.00 92 1015.5
20260507052509 52 180 3.5 7.0 0.00 0.00 0.00 92 1015.6
20260507052011 52 235 3.5 7.8 0.00 0.00 0.00 92 1015.7
20260507051508 52 175 3.5 7.8 0.00 0.00 0.00 92 1015.9
20260507051010 52 194 4.3 8.7 0.00 0.00 0.00 92 1016.0
20260507050506 52 160 3.5 8.7 0.00 0.00 0.00 92 1016.1
20260507050011 52 248 2.6 8.7 0.00 0.00 0.00 92 1016.2
20260507045542 52 178 3.5 8.7 0.00 0.00 0.00 92 1016.2
20260507045007 52 211 2.6 7.0 0.00 0.00 0.00 92 1016.4
20260507044514 52 206 4.3 7.0 0.00 0.00 0.00 92 1016.4